Year,Month,Day,Hour,Minute,Value (Times are PST for temperature in C)
2012,09,14,10,29,18.10
2012,09,14,10,30,18.10
2012,09,14,10,31,18.20
2012,09,14,10,32,18.20
2012,09,14,10,33,18.30
2012,09,14,10,34,18.30
2012,09,14,10,35,18.40
2012,09,14,10,36,18.40
2012,09,14,10,37,18.50
2012,09,14,10,38,18.60
2012,09,14,10,39,18.70
2012,09,14,10,40,18.80
2012,09,14,10,41,18.90
2012,09,14,10,42,18.90
2012,09,14,10,43,19.10
2012,09,14,10,44,19.20
2012,09,14,10,45,19.20
2012,09,14,10,46,19.20
2012,09,14,10,47,19.30
2012,09,14,10,48,19.30
2012,09,14,10,49,19.30
2012,09,14,10,50,19.30
2012,09,14,10,51,19.40
2012,09,14,10,52,19.40
2012,09,14,10,53,19.40
2012,09,14,10,54,19.50
2012,09,14,10,55,19.50
2012,09,14,10,56,19.60
2012,09,14,10,57,19.70
2012,09,14,10,58,19.80
2012,09,14,10,59,19.80
2012,09,14,11,00,19.90
2012,09,14,11,01,20.00
2012,09,14,11,02,20.00
2012,09,14,11,03,20.10
2012,09,14,11,04,20.10
2012,09,14,11,05,20.10
2012,09,14,11,06,20.20
2012,09,14,11,07,20.20
2012,09,14,11,08,20.20
2012,09,14,11,09,20.30
2012,09,14,11,10,20.30
2012,09,14,11,11,20.30
2012,09,14,11,12,20.40
2012,09,14,11,13,20.40
2012,09,14,11,14,20.50
2012,09,14,11,15,20.50
2012,09,14,11,16,20.60
2012,09,14,11,17,20.60
2012,09,14,11,18,20.70
2012,09,14,11,19,20.70
2012,09,14,11,20,20.80
2012,09,14,11,21,20.80
2012,09,14,11,22,20.80
2012,09,14,11,23,20.90
2012,09,14,11,24,21.00
2012,09,14,11,25,21.10
2012,09,14,11,26,21.20
2012,09,14,11,27,21.30
2012,09,14,11,28,21.40
2012,09,14,11,29,21.50
2012,09,14,11,30,21.60
2012,09,14,11,31,21.60
2012,09,14,11,32,21.60
2012,09,14,11,33,21.50
2012,09,14,11,34,21.50
2012,09,14,11,35,21.50
2012,09,14,11,36,21.50
2012,09,14,11,37,21.60
2012,09,14,11,38,21.70
2012,09,14,11,39,21.70
2012,09,14,11,40,21.60
2012,09,14,11,41,21.60
2012,09,14,11,42,21.50
2012,09,14,11,43,21.50
2012,09,14,11,44,21.60
2012,09,14,11,45,21.60
2012,09,14,11,46,21.70
2012,09,14,11,47,21.80
2012,09,14,11,48,21.80
2012,09,14,11,49,21.80
2012,09,14,11,50,21.90
2012,09,14,11,51,22.00
2012,09,14,11,52,22.00
2012,09,14,11,53,22.10
2012,09,14,11,54,22.10
2012,09,14,11,55,22.20
2012,09,14,11,56,22.20
2012,09,14,11,57,22.20
2012,09,14,11,58,22.20
2012,09,14,11,59,22.20
2012,09,14,12,00,22.20
2012,09,14,12,01,22.20
2012,09,14,12,02,22.20
2012,09,14,12,03,22.30
2012,09,14,12,04,22.30
2012,09,14,12,05,22.30
2012,09,14,12,06,22.40
2012,09,14,12,07,22.40
2012,09,14,12,08,22.40
2012,09,14,12,09,22.50
2012,09,14,12,10,22.50
2012,09,14,12,11,22.60
2012,09,14,12,12,22.60
2012,09,14,12,13,22.50
2012,09,14,12,14,22.40
2012,09,14,12,15,22.40
2012,09,14,12,16,22.30
2012,09,14,12,17,22.30
2012,09,14,12,18,22.20
2012,09,14,12,19,22.20
2012,09,14,12,20,22.20
2012,09,14,12,21,22.20
2012,09,14,12,22,22.20
2012,09,14,12,23,22.20
2012,09,14,12,24,22.20
2012,09,14,12,25,22.20
2012,09,14,12,26,22.20
2012,09,14,12,27,22.20
2012,09,14,12,28,22.20
2012,09,14,12,29,22.30
2012,09,14,12,30,22.30
2012,09,14,12,31,22.30
2012,09,14,12,32,22.30
2012,09,14,12,33,22.30
2012,09,14,12,34,22.30
2012,09,14,12,35,22.20
2012,09,14,12,36,22.30
2012,09,14,12,37,22.30
2012,09,14,12,38,22.40
2012,09,14,12,39,22.50
2012,09,14,12,40,22.60
2012,09,14,12,41,22.60
2012,09,14,12,42,22.70
2012,09,14,12,43,22.70
2012,09,14,12,44,22.70
2012,09,14,12,45,22.70
2012,09,14,12,46,22.70
2012,09,14,12,47,22.70
2012,09,14,12,48,22.70
2012,09,14,12,49,22.70
2012,09,14,12,50,22.70
2012,09,14,12,51,22.80
2012,09,14,12,52,22.80
2012,09,14,12,53,22.90
2012,09,14,12,54,22.90
2012,09,14,12,55,22.90
2012,09,14,12,56,22.90
2012,09,14,12,57,22.90
2012,09,14,12,58,22.90
2012,09,14,12,59,22.90
2012,09,14,13,00,22.80
2012,09,14,13,01,22.80
2012,09,14,13,02,22.90
2012,09,14,13,03,22.90
2012,09,14,13,04,23.00
2012,09,14,13,05,23.00
2012,09,14,13,06,23.10
2012,09,14,13,07,23.20
2012,09,14,13,08,23.30
2012,09,14,13,09,23.30
2012,09,14,13,10,23.30
2012,09,14,13,11,23.30
2012,09,14,13,12,23.30
2012,09,14,13,13,23.30
2012,09,14,13,14,23.30
2012,09,14,13,15,23.30
2012,09,14,13,16,23.30
2012,09,14,13,17,23.30
2012,09,14,13,18,23.30
2012,09,14,13,19,23.30
2012,09,14,13,20,23.30
2012,09,14,13,21,23.40
2012,09,14,13,22,23.50
2012,09,14,13,23,23.60
2012,09,14,13,24,23.60
2012,09,14,13,25,23.60
2012,09,14,13,26,23.60
2012,09,14,13,27,23.60
2012,09,14,13,28,23.60
2012,09,14,13,29,23.60
2012,09,14,13,30,23.60
2012,09,14,13,31,23.60
2012,09,14,13,32,23.60
2012,09,14,13,33,23.50
2012,09,14,13,34,23.50
2012,09,14,13,35,23.50
2012,09,14,13,36,23.40
2012,09,14,13,37,23.40
2012,09,14,13,38,23.40
2012,09,14,13,39,23.50
2012,09,14,13,40,23.60
2012,09,14,13,41,23.70
2012,09,14,13,42,23.80
2012,09,14,13,43,23.90
2012,09,14,13,44,23.90
2012,09,14,13,45,24.00
2012,09,14,13,46,24.00
2012,09,14,13,47,24.00
2012,09,14,13,48,24.00
2012,09,14,13,49,24.00
2012,09,14,13,50,24.00
2012,09,14,13,51,24.00
2012,09,14,13,52,24.00
2012,09,14,13,53,24.10
2012,09,14,13,54,24.10
2012,09,14,13,55,24.20
2012,09,14,13,56,24.10
2012,09,14,13,57,24.10
2012,09,14,13,58,24.10
2012,09,14,13,59,24.10
2012,09,14,14,00,24.10
2012,09,14,14,01,24.10
2012,09,14,14,02,24.00
2012,09,14,14,03,24.00
2012,09,14,14,04,23.90
2012,09,14,14,05,23.90
2012,09,14,14,06,23.90
2012,09,14,14,07,24.00
2012,09,14,14,08,24.00
2012,09,14,14,09,24.00
2012,09,14,14,10,24.00
2012,09,14,14,11,24.00
2012,09,14,14,12,24.00
2012,09,14,14,13,24.00
2012,09,14,14,14,24.00
2012,09,14,14,15,24.10
2012,09,14,14,16,24.10
2012,09,14,14,17,24.10
2012,09,14,14,18,24.10
2012,09,14,14,19,24.20
2012,09,14,14,20,24.20
2012,09,14,14,21,24.20
2012,09,14,14,22,24.30
2012,09,14,14,23,24.30
2012,09,14,14,24,24.30
2012,09,14,14,25,24.40
2012,09,14,14,26,24.50
2012,09,14,14,27,24.50
2012,09,14,14,28,24.60
2012,09,14,14,29,24.60
2012,09,14,14,30,24.70
2012,09,14,14,31,24.70
2012,09,14,14,32,24.80
2012,09,14,14,33,24.80
2012,09,14,14,34,24.90
2012,09,14,14,35,24.90
2012,09,14,14,36,24.90
2012,09,14,14,37,25.00
2012,09,14,14,38,25.00
2012,09,14,14,39,25.00
2012,09,14,14,40,25.00
2012,09,14,14,41,25.00
2012,09,14,14,42,24.90
2012,09,14,14,43,24.90
2012,09,14,14,44,24.90
2012,09,14,14,45,24.80
2012,09,14,14,46,24.80
2012,09,14,14,47,24.80
2012,09,14,14,48,24.80
2012,09,14,14,49,24.80
2012,09,14,14,50,24.80
2012,09,14,14,51,24.80
2012,09,14,14,52,24.80
2012,09,14,14,53,24.70
2012,09,14,14,54,24.70
2012,09,14,14,55,24.70
2012,09,14,14,56,24.70
2012,09,14,14,57,24.80
2012,09,14,14,58,24.80
2012,09,14,14,59,24.90
2012,09,14,15,00,25.00
2012,09,14,15,01,25.10
2012,09,14,15,02,25.20
2012,09,14,15,03,25.30
2012,09,14,15,04,25.40
2012,09,14,15,05,25.40
2012,09,14,15,06,25.40
2012,09,14,15,07,25.50
2012,09,14,15,08,25.60
2012,09,14,15,09,25.60
2012,09,14,15,10,25.60
2012,09,14,15,11,25.70
2012,09,14,15,12,25.70
2012,09,14,15,13,25.60
2012,09,14,15,14,25.60
2012,09,14,15,15,25.50
2012,09,14,15,16,25.50
2012,09,14,15,17,25.40
2012,09,14,15,18,25.50
2012,09,14,15,19,25.50
2012,09,14,15,20,25.50
2012,09,14,15,21,25.50
2012,09,14,15,22,25.50
2012,09,14,15,23,25.50
2012,09,14,15,24,25.60
2012,09,14,15,25,25.60
2012,09,14,15,26,25.60
2012,09,14,15,27,25.60
2012,09,14,15,28,25.50
2012,09,14,15,29,25.40
2012,09,14,15,30,25.40
2012,09,14,15,31,25.30
2012,09,14,15,32,25.30
2012,09,14,15,33,25.20
2012,09,14,15,34,25.20
2012,09,14,15,35,25.20
2012,09,14,15,36,25.20
2012,09,14,15,37,25.20
2012,09,14,15,38,25.20
2012,09,14,15,39,25.20
2012,09,14,15,40,25.10
2012,09,14,15,41,25.00
2012,09,14,15,42,24.90
2012,09,14,15,43,24.90
2012,09,14,15,44,24.90
2012,09,14,15,45,24.90
2012,09,14,15,46,25.00
2012,09,14,15,47,25.00
2012,09,14,15,48,25.10
2012,09,14,15,49,25.20
2012,09,14,15,50,25.20
2012,09,14,15,51,25.30
2012,09,14,15,52,25.30
2012,09,14,15,53,25.30
2012,09,14,15,54,25.30
2012,09,14,15,55,25.30
2012,09,14,15,56,25.30
2012,09,14,15,57,25.30
2012,09,14,15,58,25.30
2012,09,14,15,59,25.20
2012,09,14,16,00,25.20
2012,09,14,16,01,25.20
2012,09,14,16,02,25.30
2012,09,14,16,03,25.30
2012,09,14,16,04,25.30
2012,09,14,16,05,25.30
2012,09,14,16,06,25.30
2012,09,14,16,07,25.30
2012,09,14,16,08,25.30
2012,09,14,16,09,25.30
2012,09,14,16,10,25.40
2012,09,14,16,11,25.40
2012,09,14,16,12,25.40
2012,09,14,16,13,25.40
2012,09,14,16,14,25.30
2012,09,14,16,15,25.30
2012,09,14,16,16,25.30
2012,09,14,16,17,25.30
2012,09,14,16,18,25.30
2012,09,14,16,19,25.30
2012,09,14,16,20,25.40
2012,09,14,16,21,25.40
2012,09,14,16,22,25.40
2012,09,14,16,23,25.40
2012,09,14,16,24,25.40
2012,09,14,16,25,25.30
2012,09,14,16,26,25.30
2012,09,14,16,27,25.20
2012,09,14,16,28,25.20
2012,09,14,16,29,25.20
2012,09,14,16,30,25.20
2012,09,14,16,31,25.20
2012,09,14,16,32,25.20
2012,09,14,16,33,25.10
2012,09,14,16,34,25.10
2012,09,14,16,35,25.10
2012,09,14,16,36,25.20
2012,09,14,16,37,25.20
2012,09,14,16,38,25.20
2012,09,14,16,39,25.20
2012,09,14,16,40,25.20
2012,09,14,16,41,25.10
2012,09,14,16,42,25.10
2012,09,14,16,43,25.00
2012,09,14,16,44,24.90
2012,09,14,16,45,24.90
2012,09,14,16,46,24.80
2012,09,14,16,47,24.80
2012,09,14,16,48,24.80
2012,09,14,16,49,24.70
2012,09,14,16,50,24.70
2012,09,14,16,51,24.70
2012,09,14,16,52,24.60
2012,09,14,16,53,24.60
2012,09,14,16,54,24.60
2012,09,14,16,55,24.60
2012,09,14,16,56,24.60
2012,09,14,16,57,24.60
2012,09,14,16,58,24.60
2012,09,14,16,59,24.60
2012,09,14,17,00,24.60
2012,09,14,17,01,24.60
2012,09,14,17,02,24.60
2012,09,14,17,03,24.60
2012,09,14,17,04,24.60
2012,09,14,17,05,24.60
2012,09,14,17,06,24.50
2012,09,14,17,07,24.50
2012,09,14,17,08,24.40
2012,09,14,17,09,24.40
2012,09,14,17,10,24.30
2012,09,14,17,11,24.30
2012,09,14,17,12,24.30
2012,09,14,17,13,24.30
2012,09,14,17,14,24.30
2012,09,14,17,15,24.30
2012,09,14,17,16,24.30
2012,09,14,17,17,24.40
2012,09,14,17,18,24.40
2012,09,14,17,19,24.40
2012,09,14,17,20,24.30
2012,09,14,17,21,24.30
2012,09,14,17,22,24.40
2012,09,14,17,23,24.30
2012,09,14,17,24,24.30
2012,09,14,17,25,24.20
2012,09,14,17,26,24.10
2012,09,14,17,27,24.10
2012,09,14,17,28,24.00
2012,09,14,17,29,24.00
2012,09,14,17,30,23.90
2012,09,14,17,31,23.90
2012,09,14,17,32,23.90
2012,09,14,17,33,23.80
2012,09,14,17,34,23.80
2012,09,14,17,35,23.80
2012,09,14,17,36,23.70
2012,09,14,17,37,23.70
2012,09,14,17,38,23.70
2012,09,14,17,39,23.60
2012,09,14,17,40,23.60
2012,09,14,17,41,23.60
2012,09,14,17,42,23.60
2012,09,14,17,43,23.60
2012,09,14,17,44,23.60
2012,09,14,17,45,23.60
2012,09,14,17,46,23.50
2012,09,14,17,47,23.40
2012,09,14,17,48,23.40
2012,09,14,17,49,23.40
2012,09,14,17,50,23.40
2012,09,14,17,51,23.30
2012,09,14,17,52,23.30
2012,09,14,17,53,23.30
2012,09,14,17,54,23.30
2012,09,14,17,55,23.30
2012,09,14,17,56,23.30
2012,09,14,17,57,23.30
2012,09,14,17,58,23.30
2012,09,14,17,59,23.30
2012,09,14,18,00,23.30
2012,09,14,18,01,23.20
2012,09,14,18,02,23.20
2012,09,14,18,03,23.20
2012,09,14,18,04,23.10
2012,09,14,18,05,23.10
2012,09,14,18,06,23.10
2012,09,14,18,07,23.10
2012,09,14,18,08,23.10
2012,09,14,18,09,23.10
2012,09,14,18,10,23.00
2012,09,14,18,11,23.00
2012,09,14,18,12,22.90
2012,09,14,18,13,22.90
2012,09,14,18,14,22.90
2012,09,14,18,15,22.90
2012,09,14,18,16,22.80
2012,09,14,18,17,22.80
2012,09,14,18,18,22.80
2012,09,14,18,19,22.80
2012,09,14,18,20,22.80
2012,09,14,18,21,22.70
2012,09,14,18,22,22.70
2012,09,14,18,23,22.70
2012,09,14,18,24,22.70
2012,09,14,18,25,22.60
2012,09,14,18,26,22.60
2012,09,14,18,27,22.60
2012,09,14,18,28,22.60
2012,09,14,18,29,22.50
2012,09,14,18,30,22.50
2012,09,14,18,31,22.50
2012,09,14,18,32,22.40
2012,09,14,18,33,22.40
2012,09,14,18,34,22.40
2012,09,14,18,35,22.30
2012,09,14,18,36,22.30
2012,09,14,18,37,22.30
2012,09,14,18,38,22.30
2012,09,14,18,39,22.30
2012,09,14,18,40,22.30
2012,09,14,18,41,22.20
2012,09,14,18,42,22.20
2012,09,14,18,43,22.20
2012,09,14,18,44,22.20
2012,09,14,18,45,22.10
2012,09,14,18,46,22.10
2012,09,14,18,47,22.10
2012,09,14,18,48,22.00
2012,09,14,18,49,22.00
2012,09,14,18,50,21.90
2012,09,14,18,51,21.90
2012,09,14,18,52,21.90
2012,09,14,18,53,21.80
2012,09,14,18,54,21.80
2012,09,14,18,55,21.80
2012,09,14,18,56,21.70
2012,09,14,18,57,21.70
2012,09,14,18,58,21.70
2012,09,14,18,59,21.60
2012,09,14,19,00,21.60
2012,09,14,19,01,21.50
2012,09,14,19,02,21.50
2012,09,14,19,03,21.40
2012,09,14,19,04,21.40
2012,09,14,19,05,21.30
2012,09,14,19,06,21.30
2012,09,14,19,07,21.20
2012,09,14,19,08,21.20
2012,09,14,19,09,21.10
2012,09,14,19,10,21.10
2012,09,14,19,11,21.00
2012,09,14,19,12,20.90
2012,09,14,19,13,20.80
2012,09,14,19,14,20.80
2012,09,14,19,15,20.70
2012,09,14,19,16,20.60
2012,09,14,19,17,20.60
2012,09,14,19,18,20.60
2012,09,14,19,19,20.60
2012,09,14,19,20,20.60
2012,09,14,19,21,20.60
2012,09,14,19,22,20.60
2012,09,14,19,23,20.60
2012,09,14,19,24,20.60
2012,09,14,19,25,20.60
2012,09,14,19,26,20.60
2012,09,14,19,27,20.60
